Terminal Aerodrome Forecast
Issued by NWS Brownsville, TX

Home | Current Version | Previous Version | Text Only | Print | Product List | Glossary On
Versions: 1 2 3 4 5 6 7 8 9 10 11 12 13 14 15 16 17 18 19 20 21 22 23
887
FTUS44 KBRO 291515 AAB
TAFMFE
TAF AMD
KMFE 291515Z 2915/3012 16015G25KT 4SM HZ BKN015 OVC025
     FM300200 14013G18KT 6SM HZ BKN025
     FM300500 13008KT 6SM BR BKN010=

USA.gov is the U.S. government's official web portal to all federal, state and local government web resources and services.